LUCH 1

导读

LUCH 1(“鲁奇”1号)是独联体(CIS)于1995年10月11日08:00发射的卫星,作为苏联/俄罗斯“鲁奇”系列中继卫星的首星,它主要承担空间通信中继任务,为低轨道航天器提供信号中转与数据传输支持,依托地球同步轨道部署,是独联体早期空间通信体系的重要探索,对后续卫星中继技术发展积累了关键工程经验。

基本信息
目录编号:
23680
目录名称:
LUCH 1
国际标识:
1995-054A
轨道中心:
EARTH
卫星名称:
LUCH 1
卫星全名:
--
卫星状态:
在轨 (已飞行11208 天)
发射日期:
1995-10-11 UTC
国别 :
俄罗斯(独联体) (CIS)
星等 :
--
轨道信息
数据来源 国际轨道数据 AOE轨道数据
星历时间 2026-06-18T04:17:56+0800
5小时前
查看轨道信息
2026-06-17T10:00:00+0800
23小时前
查看轨道信息
半长轴 42165.85km 42165.653km
偏心率 0.000634 0.0006294
轨道倾角 15.035° 15.034°
近地点辐角 141.178° 140.149°
升交点赤经 359.239° 359.248°
平近点角 143.940° 229.741°
近地点 35760.979km 35760.976km
远地点 35814.447km 35814.056km
周期 1436.154分钟 1436.144分钟
每日圈数 1.002678 1.002685
详细信息
使用方式:
暂无
2D轨道图
3D轨道图
轨道高度分析图
轨道倾角分析图
轨道综合分析图
查看轨道综合分析图